This is the latest recevied weather packets stored in our database for station/object KD8NVS-13. If no packets are shown the sender has not sent any weather packets the latest 10 day(s).
| Time | Temp. | Humidity | Pressure | Rain* | Wind** | Luminosity | Snow |
|---|---|---|---|---|---|---|---|
| 1777727406 | 4.44° C | 75% | 1007.7 hPa | 0 mm | - | 302 W/m² | - |
| 1777727104 | 4.44° C | 76% | 1007.7 hPa | 0 mm | - | 315 W/m² | - |
| 1777726802 | 4.44° C | 77% | 1007.7 hPa | 0 mm | - | 299 W/m² | - |
| 1777726498 | 4.44° C | 79% | 1007.3 hPa | 0 mm | - | 286 W/m² | - |
| 1777726195 | 3.89° C | 79% | 1007.7 hPa | 0 mm | - | 271 W/m² | - |
| 1777725891 | 3.89° C | 80% | 1007.3 hPa | 0 mm | - | 252 W/m² | - |
| 1777725589 | 3.89° C | 80% | 1007.7 hPa | 0 mm | - | 235 W/m² | - |
| 1777725286 | 3.89° C | 80% | 1007.3 hPa | 0 mm | - | 214 W/m² | - |
| 1777724983 | 3.89° C | 81% | 1007.3 hPa | 0 mm | - | 201 W/m² | - |
| 1777724679 | 3.33° C | 81% | 1007.3 hPa | 0 mm | - | 188 W/m² | - |
| 1777724378 | 3.33° C | 84% | 1007.3 hPa | 0 mm | - | 163 W/m² | - |
| 1777724074 | 3.33° C | 84% | 1007.3 hPa | 0 mm | - | 150 W/m² | - |
| 1777723772 | 2.78° C | 85% | 1007.3 hPa | 0 mm | - | 139 W/m² | - |
| 1777723468 | 2.78° C | 93% | 1007.3 hPa | 0 mm | - | 123 W/m² | - |
| 1777723166 | 2.22° C | 97% | 1007.3 hPa | 0 mm | - | 110 W/m² | - |
| 1777722863 | 2.22° C | 98% | 1007.3 hPa | 0 mm | - | 94 W/m² | - |
| 1777722558 | 2.78° C | 97% | 1007 hPa | 0 mm | - | 81 W/m² | - |
| 1777722256 | 3.89° C | 98% | 1007 hPa | 0 mm | - | 69 W/m² | - |
| 1777721953 | 3.33° C | 98% | 1007 hPa | 0 mm | - | 59 W/m² | - |
| 1777721650 | 4.44° C | 98% | 1007 hPa | 0 mm | - | 55 W/m² | - |
| 1777721349 | 3.89° C | 98% | 1007 hPa | 0 mm | - | 50 W/m² | - |
| 1777721046 | 2.22° C | 98% | 1007 hPa | 0 mm | - | 43 W/m² | - |
| 1777720743 | 1.67° C | 98% | 1007 hPa | 0 mm | - | 40 W/m² | - |
| 1777720440 | 1.11° C | 98% | 1007.3 hPa | 0 mm | - | 36 W/m² | - |
| 1777720138 | 0.56° C | 98% | 1007 hPa | 0 mm | - | 31 W/m² | - |
* Rain latest hour (hover to see other rain measurements)
** Current wind speed in m/s (hover to see current wind gust speed)